Location: Willingham
(52.3167°N, 0.0667°E)
Time: 04:20:52
(UTC+00:00)

Cosmos 1420 Rocket - Pass Details

Date: 19 May 2025
Orbit: 750 x 777 km, 74.0° (Epoch: 13 June)

Event Time Altitude Azimuth Distance (km) Brightness Sun altitude
Rises 23:32:49 0° 334° (NNW) 3,272 8.6 -17.5°
Reaches altitude 10° 23:35:13 10° 335° (NNW) 2,340 7.6 -17.5°
Maximum altitude 23:40:33 83° 64° (ENE) 788 4.0 -17.6°
Enters shadow 23:43:25 28° 151° (SSE) 1,423 4.9 -17.6°
